Showing default

ASTROCAST-0401, 55110

Orbit data source: Space-Track

ASTROCAST-0401, 55110 is a payload satellite owned by Astrocast (CH) in SSO that was launched on Tue, 03 Jan 2023 UTC via an FALCON 9 launch vehicle from the Air Force Eastern Test Range (AFETR). Payload-class satellites include a variety of spacecraft equipped with specific instruments for various scientific and technological missions. These include communications satellites like Starlink; space stations such as the ISS; scientific satellites like the Hubble; Earth observation satellites from companies like Planet Labs, Umbra, and HawkEye 360; GPS; miniature CubeSats for education and research; and military/defense satellites.

Loading next visibility...
Identifier
55110, 2023-001DF
Orbit
SSO
Country
Flag of UnknownUnknown / SWTZ
Related business
Manufacturer
Astrocast
Mission
Operational Commercial Communications
Bus & Motor
CUBESAT 3U, Unknown motor
Mass
4.5 kg wet, 4.5 kg dry
Launch date (UTC)
2023-01-03 (3 years ago)
Launch vehicle
FALCON 9
Launch site
Air Force Eastern Test Range (AFETR)
Object type
Payload
Rocket body
Debris
Shape & HBR
Box, 0.1 m
Radar Cross Section
0.035 m², Medium (>0.1 m² and < 1m²)

Expand to show TLE details & history
Last TLE update: 20 hours ago

TLE from 20 hours ago
0 ASTROCAST-0401
1 55110U 23001DF  25286.51749104  .00011783  00000-0  49904-3 0  9991
2 55110  97.5681  11.8757 0008695   3.3158 356.8134 15.23287824153592
Epoch: 2025-10-13T12:25Z
TLE epoch observation values (Epoch: 2025-10-13T12:25:11.225Z)
Latitude
-0.0001°
Longitude
163.25981°
Altitude
493.053 km
Speed
7.622 km/s
True Right ascension
00h 47m 30s
True Declination
0° 00' 00"
Sunlit
Object was in full shadow at epoch
Visualization orbit readout
Latitude
Unknown
Longitude
Unknown
Altitude
Unknown
Speed
Unknown
Apparent Right ascension
Unknown
Apparent Declination
Unknown
Sunlit
N/A
Visualization observer readout
Local Sidereal Time
02:54:08
Azimuth
Unknown
Elevation
Unknown
Doppler factor
Unknown
Orbital elements
Apogee altitude
498.874 km
Perigee altitude
486.926 km
Semi-major axis
6,871.037 km
Eccentricity
0.00087
Inclination
97.5681°
RAAN
11.8757°
Arg. of periapsis
3.3158°
True anomaly
356.80786°
Mean anomaly
356.8134°
Eccentric anomaly
356.81063°
Mean motion
3.81074 °/min
Orbital period
94.47 mins
BSTAR
0.00049904
Loading maneuver chart data...
Computing Atmospheric mass density...
Loading historical data...
Loading historical data...
Loading historical data...
Loading historical data...
Loading historical data...
Loading historical data...
Loading historical data...

Documentation

Showing up to 5 results
|